Year,Month,Day,Hour,Minute,Value (Times are PST for temperature in C)
2020,03,01,07,40,0.90
2020,03,01,07,41,0.90
2020,03,01,07,42,0.90
2020,03,01,07,43,1.00
2020,03,01,07,44,1.00
2020,03,01,07,45,1.00
2020,03,01,07,46,1.00
2020,03,01,07,47,1.10
2020,03,01,07,48,1.10
2020,03,01,07,49,1.10
2020,03,01,07,50,1.10
2020,03,01,07,51,1.20
2020,03,01,07,52,1.20
2020,03,01,07,53,1.20
2020,03,01,07,54,1.20
2020,03,01,07,55,1.30
2020,03,01,07,56,1.30
2020,03,01,07,57,1.30
2020,03,01,07,58,1.40
2020,03,01,07,59,1.40
2020,03,01,08,00,1.40
2020,03,01,08,01,1.40
2020,03,01,08,02,1.40
2020,03,01,08,03,1.40
2020,03,01,08,04,1.50
2020,03,01,08,05,1.50
2020,03,01,08,06,1.50
2020,03,01,08,07,1.50
2020,03,01,08,08,1.50
2020,03,01,08,09,1.50
2020,03,01,08,10,1.50
2020,03,01,08,11,1.60
2020,03,01,08,12,1.60
2020,03,01,08,13,1.60
2020,03,01,08,14,1.60
2020,03,01,08,15,1.60
2020,03,01,08,16,1.60
2020,03,01,08,17,1.60
2020,03,01,08,18,1.60
2020,03,01,08,19,1.70
2020,03,01,08,20,1.70
2020,03,01,08,21,1.70
2020,03,01,08,22,1.70
2020,03,01,08,23,1.70
2020,03,01,08,24,1.70
2020,03,01,08,25,1.70
2020,03,01,08,26,1.70
2020,03,01,08,27,1.80
2020,03,01,08,28,1.80
2020,03,01,08,29,1.80
2020,03,01,08,30,1.80
2020,03,01,08,31,1.90
2020,03,01,08,32,1.90
2020,03,01,08,33,1.90
2020,03,01,08,34,1.90
2020,03,01,08,35,2.00
2020,03,01,08,36,2.10
2020,03,01,08,37,2.10
2020,03,01,08,38,2.10
2020,03,01,08,39,2.20
2020,03,01,08,40,2.20
2020,03,01,08,41,2.20
2020,03,01,08,42,2.30
2020,03,01,08,43,2.30
2020,03,01,08,44,2.30
2020,03,01,08,45,2.40
2020,03,01,08,46,2.40
2020,03,01,08,47,2.40
2020,03,01,08,48,2.40
2020,03,01,08,49,2.40
2020,03,01,08,50,2.50
2020,03,01,08,51,2.50
2020,03,01,08,52,2.50
2020,03,01,08,53,2.50
2020,03,01,08,54,2.60
2020,03,01,08,55,2.60
2020,03,01,08,56,2.60
2020,03,01,08,57,2.60
2020,03,01,08,58,2.60
2020,03,01,08,59,2.70
2020,03,01,09,00,2.70
2020,03,01,09,01,2.70
2020,03,01,09,02,2.70
2020,03,01,09,03,2.80
2020,03,01,09,04,2.80
2020,03,01,09,05,2.80
2020,03,01,09,06,2.90
2020,03,01,09,07,2.90
2020,03,01,09,08,2.90
2020,03,01,09,09,3.00
2020,03,01,09,10,3.00
2020,03,01,09,11,3.00
2020,03,01,09,12,3.10
2020,03,01,09,13,3.10
2020,03,01,09,14,3.10
2020,03,01,09,15,3.10
2020,03,01,09,16,3.10
2020,03,01,09,17,3.10
2020,03,01,09,18,3.10
2020,03,01,09,19,3.20
2020,03,01,09,20,3.20
2020,03,01,09,21,3.20
2020,03,01,09,22,3.20
2020,03,01,09,23,3.20
2020,03,01,09,24,3.20
2020,03,01,09,25,3.20
2020,03,01,09,26,3.30
2020,03,01,09,27,3.30
2020,03,01,09,28,3.30
2020,03,01,09,29,3.40
2020,03,01,09,30,3.40
2020,03,01,09,31,3.40
2020,03,01,09,32,3.40
2020,03,01,09,33,3.40
2020,03,01,09,34,3.50
2020,03,01,09,35,3.50
2020,03,01,09,36,3.50
2020,03,01,09,37,3.50
2020,03,01,09,38,3.50
2020,03,01,09,39,3.50
2020,03,01,09,40,3.50
2020,03,01,09,41,3.50
2020,03,01,09,42,3.50
2020,03,01,09,43,3.50
2020,03,01,09,44,3.50
2020,03,01,09,45,3.50
2020,03,01,09,46,3.50
2020,03,01,09,47,3.60
2020,03,01,09,48,3.60
2020,03,01,09,49,3.60
2020,03,01,09,50,3.60
2020,03,01,09,51,3.60
2020,03,01,09,52,3.60
2020,03,01,09,53,3.60
2020,03,01,09,54,3.60
2020,03,01,09,55,3.60
2020,03,01,09,56,3.60
2020,03,01,09,57,3.60
2020,03,01,09,58,3.60
2020,03,01,09,59,3.60
2020,03,01,10,00,3.60
2020,03,01,10,01,3.60
2020,03,01,10,02,3.60
2020,03,01,10,03,3.60
2020,03,01,10,04,3.60
2020,03,01,10,05,3.60
2020,03,01,10,06,3.60
2020,03,01,10,07,3.60
2020,03,01,10,08,3.60
2020,03,01,10,09,3.60
2020,03,01,10,10,3.60
2020,03,01,10,11,3.60
2020,03,01,10,12,3.60
2020,03,01,10,13,3.60
2020,03,01,10,14,3.60
2020,03,01,10,15,3.70
2020,03,01,10,16,3.70
2020,03,01,10,17,3.70
2020,03,01,10,18,3.70
2020,03,01,10,19,3.70
2020,03,01,10,20,3.70
2020,03,01,10,21,3.70
2020,03,01,10,22,3.70
2020,03,01,10,23,3.70
2020,03,01,10,24,3.70
2020,03,01,10,25,3.70
2020,03,01,10,26,3.70
2020,03,01,10,27,3.70
2020,03,01,10,28,3.70
2020,03,01,10,29,3.70
2020,03,01,10,30,3.70
2020,03,01,10,31,3.80
2020,03,01,10,32,3.80
2020,03,01,10,33,3.80
2020,03,01,10,34,3.80
2020,03,01,10,35,3.80
2020,03,01,10,36,3.80
2020,03,01,10,37,3.80
2020,03,01,10,38,3.80
2020,03,01,10,39,3.80
2020,03,01,10,40,3.80
2020,03,01,10,41,3.90
2020,03,01,10,42,3.90
2020,03,01,10,43,3.90
2020,03,01,10,44,3.90
2020,03,01,10,45,3.90
2020,03,01,10,46,3.90
2020,03,01,10,47,3.90
2020,03,01,10,48,3.90
2020,03,01,10,49,3.90
2020,03,01,10,50,3.90
2020,03,01,10,51,4.00
2020,03,01,10,52,3.90
2020,03,01,10,53,3.90
2020,03,01,10,54,3.90
2020,03,01,10,55,3.90
2020,03,01,10,56,3.90
2020,03,01,10,57,3.90
2020,03,01,10,58,3.90
2020,03,01,10,59,3.90
2020,03,01,11,00,3.90
2020,03,01,11,01,3.90
2020,03,01,11,02,3.90
2020,03,01,11,03,3.90
2020,03,01,11,04,3.90
2020,03,01,11,05,3.90
2020,03,01,11,06,3.90
2020,03,01,11,07,3.90
2020,03,01,11,08,3.90
2020,03,01,11,09,4.00
2020,03,01,11,10,4.00
2020,03,01,11,11,4.00
2020,03,01,11,12,4.00
2020,03,01,11,13,4.00
2020,03,01,11,14,4.00
2020,03,01,11,15,4.10
2020,03,01,11,16,4.10
2020,03,01,11,17,4.10
2020,03,01,11,18,4.10
2020,03,01,11,19,4.10
2020,03,01,11,20,4.10
2020,03,01,11,21,4.10
2020,03,01,11,22,4.10
2020,03,01,11,23,4.10
2020,03,01,11,24,4.10
2020,03,01,11,25,4.10
2020,03,01,11,26,4.10
2020,03,01,11,27,4.10
2020,03,01,11,28,4.10
2020,03,01,11,29,4.10
2020,03,01,11,30,4.10
2020,03,01,11,31,4.20
2020,03,01,11,32,4.20
2020,03,01,11,33,4.20
2020,03,01,11,34,4.20
2020,03,01,11,35,4.20
2020,03,01,11,36,4.20
2020,03,01,11,37,4.30
2020,03,01,11,38,4.30
2020,03,01,11,39,4.30
2020,03,01,11,40,4.30
2020,03,01,11,41,4.30
2020,03,01,11,42,4.40
2020,03,01,11,43,4.40
2020,03,01,11,44,4.40
2020,03,01,11,45,4.40
2020,03,01,11,46,4.40
2020,03,01,11,47,4.40
2020,03,01,11,48,4.40
2020,03,01,11,49,4.40
2020,03,01,11,50,4.40
2020,03,01,11,51,4.40
2020,03,01,11,52,4.40
2020,03,01,11,53,4.40
2020,03,01,11,54,4.40
2020,03,01,11,55,4.40
2020,03,01,11,56,4.40
2020,03,01,11,57,4.40
2020,03,01,11,58,4.40
2020,03,01,11,59,4.40
2020,03,01,12,00,4.40
2020,03,01,12,01,4.50
2020,03,01,12,02,4.50
2020,03,01,12,03,4.50
2020,03,01,12,04,4.60
2020,03,01,12,05,4.60
2020,03,01,12,06,4.50
2020,03,01,12,07,4.50
2020,03,01,12,08,4.50
2020,03,01,12,09,4.60
2020,03,01,12,10,4.60
2020,03,01,12,11,4.60
2020,03,01,12,12,4.60
2020,03,01,12,13,4.60
2020,03,01,12,14,4.60
2020,03,01,12,15,4.60
2020,03,01,12,16,4.60
2020,03,01,12,17,4.60
2020,03,01,12,18,4.60
2020,03,01,12,19,4.60
2020,03,01,12,20,4.60
2020,03,01,12,21,4.60
2020,03,01,12,22,4.60
2020,03,01,12,23,4.60
2020,03,01,12,24,4.60
2020,03,01,12,25,4.60
2020,03,01,12,26,4.60
2020,03,01,12,27,4.70
2020,03,01,12,28,4.70
2020,03,01,12,29,4.70
2020,03,01,12,30,4.70
2020,03,01,12,31,4.70
2020,03,01,12,32,4.60
2020,03,01,12,33,4.60
2020,03,01,12,34,4.60
2020,03,01,12,35,4.60
2020,03,01,12,36,4.60
2020,03,01,12,37,4.60
2020,03,01,12,38,4.60
2020,03,01,12,39,4.60
2020,03,01,12,40,4.60
2020,03,01,12,41,4.60
2020,03,01,12,42,4.60
2020,03,01,12,43,4.50
2020,03,01,12,44,4.50
2020,03,01,12,45,4.50
2020,03,01,12,46,4.50
2020,03,01,12,47,4.50
2020,03,01,12,48,4.50
2020,03,01,12,49,4.40
2020,03,01,12,50,4.40
2020,03,01,12,51,4.40
2020,03,01,12,52,4.40
2020,03,01,12,53,4.40
2020,03,01,12,54,4.40
2020,03,01,12,55,4.40
2020,03,01,12,56,4.40
2020,03,01,12,57,4.40
2020,03,01,12,58,4.40
2020,03,01,12,59,4.40
2020,03,01,13,00,4.40
2020,03,01,13,01,4.40
2020,03,01,13,02,4.40
2020,03,01,13,03,4.40
2020,03,01,13,04,4.40
2020,03,01,13,05,4.40
2020,03,01,13,06,4.40
2020,03,01,13,07,4.40
2020,03,01,13,08,4.40
2020,03,01,13,09,4.40
2020,03,01,13,10,4.40
2020,03,01,13,11,4.40
2020,03,01,13,12,4.40
2020,03,01,13,13,4.40
2020,03,01,13,14,4.40
2020,03,01,13,15,4.40
2020,03,01,13,16,4.40
2020,03,01,13,17,4.30
2020,03,01,13,18,4.30
2020,03,01,13,19,4.30
2020,03,01,13,20,4.30
2020,03,01,13,21,4.30
2020,03,01,13,22,4.30
2020,03,01,13,23,4.30
2020,03,01,13,24,4.30
2020,03,01,13,25,4.30
2020,03,01,13,26,4.30
2020,03,01,13,27,4.30
2020,03,01,13,28,4.30
2020,03,01,13,29,4.30
2020,03,01,13,30,4.30
2020,03,01,13,31,4.30
2020,03,01,13,32,4.30
2020,03,01,13,33,4.30
2020,03,01,13,34,4.30
2020,03,01,13,35,4.30
2020,03,01,13,36,4.30
2020,03,01,13,37,4.30
2020,03,01,13,38,4.30
2020,03,01,13,39,4.30
2020,03,01,13,40,4.30
2020,03,01,13,41,4.30
2020,03,01,13,42,4.30
2020,03,01,13,43,4.30
2020,03,01,13,44,4.30
2020,03,01,13,45,4.20
2020,03,01,13,46,4.20
2020,03,01,13,47,4.20
2020,03,01,13,48,4.10
2020,03,01,13,49,4.10
2020,03,01,13,50,4.10
2020,03,01,13,51,4.00
2020,03,01,13,52,4.00
2020,03,01,13,53,3.90
2020,03,01,13,54,3.90
2020,03,01,13,55,3.90
2020,03,01,13,56,3.90
2020,03,01,13,57,3.80
2020,03,01,13,58,3.80
2020,03,01,13,59,3.80
2020,03,01,14,00,3.80
2020,03,01,14,01,3.70
2020,03,01,14,02,3.70
2020,03,01,14,03,3.70
2020,03,01,14,04,3.70
2020,03,01,14,05,3.60
2020,03,01,14,06,3.60
2020,03,01,14,07,3.60
2020,03,01,14,08,3.60
2020,03,01,14,09,3.60
2020,03,01,14,10,3.60
2020,03,01,14,11,3.60
2020,03,01,14,12,3.60
2020,03,01,14,13,3.60
2020,03,01,14,14,3.60
2020,03,01,14,15,3.60
2020,03,01,14,16,3.60
2020,03,01,14,17,3.60
2020,03,01,14,18,3.60
2020,03,01,14,19,3.60
2020,03,01,14,20,3.50
2020,03,01,14,21,3.50
2020,03,01,14,22,3.50
2020,03,01,14,23,3.50
2020,03,01,14,24,3.50
2020,03,01,14,25,3.50
2020,03,01,14,26,3.40
2020,03,01,14,27,3.50
2020,03,01,14,28,3.40
2020,03,01,14,29,3.40
2020,03,01,14,30,3.50
2020,03,01,14,31,3.50
2020,03,01,14,32,3.50
2020,03,01,14,33,3.50
2020,03,01,14,34,3.50
2020,03,01,14,35,3.50
2020,03,01,14,36,3.50
2020,03,01,14,37,3.60
2020,03,01,14,38,3.60
2020,03,01,14,39,3.60
2020,03,01,14,40,3.60
2020,03,01,14,41,3.60
2020,03,01,14,42,3.60
2020,03,01,14,43,3.60
2020,03,01,14,44,3.60
2020,03,01,14,45,3.60
2020,03,01,14,46,3.60
2020,03,01,14,47,3.60
2020,03,01,14,48,3.60
2020,03,01,14,49,3.60
2020,03,01,14,50,3.60
2020,03,01,14,51,3.60
2020,03,01,14,52,3.60
2020,03,01,14,53,3.60
2020,03,01,14,54,3.60
2020,03,01,14,55,3.60
2020,03,01,14,56,3.60
2020,03,01,14,57,3.60
2020,03,01,14,58,3.60
2020,03,01,14,59,3.60
2020,03,01,15,00,3.60
2020,03,01,15,01,3.60
2020,03,01,15,02,3.60
2020,03,01,15,03,3.60
2020,03,01,15,04,3.60
2020,03,01,15,05,3.60
2020,03,01,15,06,3.70
2020,03,01,15,07,3.70
2020,03,01,15,08,3.70
2020,03,01,15,09,3.70
2020,03,01,15,10,3.70
2020,03,01,15,11,3.70
2020,03,01,15,12,3.70
2020,03,01,15,13,3.70
2020,03,01,15,14,3.70
2020,03,01,15,15,3.70
2020,03,01,15,16,3.70
2020,03,01,15,17,3.70
2020,03,01,15,18,3.70
2020,03,01,15,19,3.70
2020,03,01,15,20,3.70
2020,03,01,15,21,3.70
2020,03,01,15,22,3.70
2020,03,01,15,23,3.70
2020,03,01,15,24,3.70
2020,03,01,15,25,3.70
2020,03,01,15,26,3.70
2020,03,01,15,27,3.70
2020,03,01,15,28,3.70
2020,03,01,15,29,3.70
2020,03,01,15,30,3.70
2020,03,01,15,31,3.70
2020,03,01,15,32,3.80
2020,03,01,15,33,3.80
2020,03,01,15,34,3.80
2020,03,01,15,35,3.80
2020,03,01,15,36,3.80
2020,03,01,15,37,3.80
2020,03,01,15,38,3.80
2020,03,01,15,39,3.90
2020,03,01,15,40,3.90
2020,03,01,15,41,3.90
2020,03,01,15,42,3.90
2020,03,01,15,43,3.90
2020,03,01,15,44,3.90
2020,03,01,15,45,3.90
2020,03,01,15,46,3.80
2020,03,01,15,47,3.80
2020,03,01,15,48,3.80
2020,03,01,15,49,3.80
2020,03,01,15,50,3.80
2020,03,01,15,51,3.80
2020,03,01,15,52,3.80
2020,03,01,15,53,3.80
2020,03,01,15,54,3.80
2020,03,01,15,55,3.80
2020,03,01,15,56,3.80
2020,03,01,15,57,3.90
2020,03,01,15,58,3.90
2020,03,01,15,59,3.90
2020,03,01,16,00,3.90
2020,03,01,16,01,3.90
2020,03,01,16,02,3.90
2020,03,01,16,03,4.00
2020,03,01,16,04,4.00
2020,03,01,16,05,4.00
2020,03,01,16,06,4.00
2020,03,01,16,07,4.00
2020,03,01,16,08,4.00
2020,03,01,16,09,4.10
2020,03,01,16,10,4.10
2020,03,01,16,11,4.10
2020,03,01,16,12,4.10
2020,03,01,16,13,4.10
2020,03,01,16,14,4.10
2020,03,01,16,15,4.10
2020,03,01,16,16,4.10
2020,03,01,16,17,4.10
2020,03,01,16,18,4.10
2020,03,01,16,19,4.20
2020,03,01,16,20,4.20
2020,03,01,16,21,4.20
2020,03,01,16,22,4.20
2020,03,01,16,23,4.20
2020,03,01,16,24,4.20
2020,03,01,16,25,4.20
2020,03,01,16,26,4.20
2020,03,01,16,27,4.20
2020,03,01,16,28,4.20
2020,03,01,16,29,4.20
2020,03,01,16,30,4.20
2020,03,01,16,31,4.20
2020,03,01,16,32,4.10
2020,03,01,16,33,4.10
2020,03,01,16,34,4.10
2020,03,01,16,35,4.10
2020,03,01,16,36,4.10
2020,03,01,16,37,4.10
2020,03,01,16,38,4.10
2020,03,01,16,39,4.10
2020,03,01,16,40,4.10
2020,03,01,16,41,4.00
2020,03,01,16,42,4.00
2020,03,01,16,43,3.90
2020,03,01,16,44,3.90
2020,03,01,16,45,3.90
2020,03,01,16,46,3.90
2020,03,01,16,47,3.90
2020,03,01,16,48,3.90
2020,03,01,16,49,3.90
2020,03,01,16,50,3.80
2020,03,01,16,51,3.80
2020,03,01,16,52,3.80
2020,03,01,16,53,3.80
2020,03,01,16,54,3.80
2020,03,01,16,55,3.80
2020,03,01,16,56,3.80
2020,03,01,16,57,3.80
2020,03,01,16,58,3.80
2020,03,01,16,59,3.70
2020,03,01,17,00,3.70
2020,03,01,17,01,3.70
2020,03,01,17,02,3.70
2020,03,01,17,03,3.70
2020,03,01,17,04,3.70
2020,03,01,17,05,3.70
2020,03,01,17,06,3.70
2020,03,01,17,07,3.70
2020,03,01,17,08,3.70
2020,03,01,17,09,3.70
